Location: Albuquerque Trailhead
(34.7934°N, 106.3736°W)
Time: 02:11:22
(UTC+00:00)

Cosmos 1674 Rocket - Pass Details

Date: 20 June 2021
Orbit: 602 x 630 km, 82.5° (Epoch: 27 July)

Event Time Altitude Azimuth Distance (km) Brightness Sun altitude
Rises 03:01:51 0° 190° (S) 2,890 6.7 -7.7°
Reaches altitude 10° 03:04:05 10° 193° (SSW) 1,983 5.9 -8.1°
Maximum altitude 03:08:27 70° 277° (W) 658 3.9 -8.8°
Drops below altitude 10° 03:12:50 10° 2° (N) 1,980 6.7 -9.6°
Sets 03:15:04 0° 4° (N) 2,884 7.5 -9.9°
